| time (UTC) | temp F | wind direction | speed MPH | gust MPH | rain 1hr in | rain 24hr in | rain mn in | humidity % | barometer mb |
| 20260505152537 | 34 | 0 | 0.0 | 2.0 | 0.06 | 0.42 | 0.37 | 92 | 1015.8 |
| 20260505152040 | 34 | 0 | 0.0 | 2.0 | 0.06 | 0.42 | 0.37 | 92 | 1015.9 |
| 20260505151554 | 33 | 0 | 0.0 | 1.0 | 0.05 | 0.41 | 0.36 | 92 | 1015.9 |
| 20260505151037 | 33 | 0 | 0.0 | 2.0 | 0.05 | 0.41 | 0.36 | 92 | 1015.9 |
| 20260505150537 | 33 | 0 | 0.0 | 2.0 | 0.04 | 0.40 | 0.35 | 92 | 1015.9 |
| 20260505140537 | 33 | 283 | 0.0 | 2.0 | 0.00 | 0.36 | 0.31 | 92 | 1015.9 |
| 20260505125037 | 34 | 281 | 1.0 | 4.0 | 0.03 | 0.36 | 0.31 | 91 | 1015.4 |
| 20260505124553 | 34 | 285 | 2.0 | 4.0 | 0.03 | 0.36 | 0.31 | 91 | 1015.3 |
| 20260505124037 | 34 | 259 | 1.0 | 4.0 | 0.03 | 0.35 | 0.30 | 91 | 1015.2 |
| 20260505123539 | 34 | 271 | 1.0 | 4.0 | 0.03 | 0.35 | 0.30 | 91 | 1015.1 |
| 20260505123103 | 34 | 266 | 2.0 | 6.0 | 0.03 | 0.35 | 0.30 | 91 | 1015.0 |
| 20260505122538 | 34 | 0 | 1.0 | 6.0 | 0.03 | 0.35 | 0.30 | 91 | 1014.9 |
| 20260505122038 | 34 | 275 | 1.0 | 6.0 | 0.02 | 0.34 | 0.29 | 91 | 1015.0 |
| 20260505121549 | 34 | 0 | 1.0 | 4.0 | 0.03 | 0.34 | 0.29 | 91 | 1014.9 |
| 20260505121037 | 34 | 263 | 1.0 | 4.0 | 0.03 | 0.34 | 0.29 | 91 | 1014.9 |
| 20260505120537 | 34 | 288 | 1.0 | 4.0 | 0.03 | 0.34 | 0.29 | 91 | 1015.0 |
| 20260505120048 | 34 | 299 | 1.0 | 3.0 | 0.03 | 0.34 | 0.29 | 91 | 1015.0 |
| 20260505115538 | 34 | 0 | 0.0 | 4.0 | 0.03 | 0.33 | 0.28 | 91 | 1014.9 |
| 20260505115034 | 34 | 0 | 1.0 | 6.0 | 0.04 | 0.33 | 0.28 | 91 | 1014.9 |
| 20260505114611 | 34 | 271 | 1.0 | 6.0 | 0.05 | 0.33 | 0.28 | 90 | 1014.7 |
| 20260505114038 | 34 | 259 | 2.0 | 6.0 | 0.05 | 0.32 | 0.27 | 90 | 1014.6 |
| 20260505113541 | 34 | 262 | 2.0 | 6.0 | 0.06 | 0.32 | 0.27 | 90 | 1014.6 |
| 20260505113049 | 35 | 0 | 2.0 | 6.0 | 0.07 | 0.32 | 0.27 | 90 | 1014.6 |
| 20260505112537 | 35 | 277 | 2.0 | 6.0 | 0.08 | 0.32 | 0.27 | 90 | 1014.6 |
| 20260505112035 | 35 | 46 | 1.0 | 8.0 | 0.09 | 0.32 | 0.27 | 90 | 1014.5 |
| 20260505111602 | 35 | 0 | 1.0 | 9.0 | 0.09 | 0.31 | 0.26 | 90 | 1014.6 |
| 20260505111041 | 35 | 42 | 3.0 | 9.0 | 0.09 | 0.31 | 0.26 | 90 | 1014.4 |
| 20260505110537 | 35 | 44 | 3.0 | 10.0 | 0.10 | 0.31 | 0.26 | 90 | 1014.3 |
| 20260505102037 | 36 | 44 | 6.0 | 12.0 | 0.05 | 0.23 | 0.18 | 89 | 1014.1 |
| 20260505101546 | 36 | 16 | 7.0 | 12.0 | 0.04 | 0.22 | 0.17 | 89 | 1013.9 |
| 20260505101038 | 36 | 21 | 7.0 | 13.0 | 0.03 | 0.21 | 0.16 | 89 | 1013.9 |
| 20260505100537 | 36 | 23 | 6.0 | 13.0 | 0.04 | 0.21 | 0.16 | 89 | 1013.9 |
| 20260505100054 | 36 | 54 | 7.0 | 13.0 | 0.03 | 0.20 | 0.15 | 89 | 1013.9 |
| 20260505095536 | 36 | 333 | 7.0 | 14.0 | 0.05 | 0.20 | 0.15 | 88 | 1013.8 |
| 20260505095038 | 37 | 38 | 7.0 | 14.0 | 0.06 | 0.20 | 0.15 | 88 | 1013.9 |
| 20260505094550 | 37 | 25 | 9.0 | 14.0 | 0.07 | 0.20 | 0.15 | 88 | 1013.9 |
| 20260505094036 | 37 | 17 | 8.0 | 13.0 | 0.07 | 0.19 | 0.14 | 88 | 1013.9 |
| 20260505093537 | 37 | 21 | 7.0 | 15.0 | 0.08 | 0.19 | 0.14 | 88 | 1013.9 |
| 20260505093050 | 37 | 2 | 6.0 | 15.0 | 0.08 | 0.19 | 0.14 | 88 | 1013.9 |
| 20260505092537 | 37 | 352 | 8.0 | 15.0 | 0.09 | 0.19 | 0.14 | 88 | 1014.1 |
| 20260505092037 | 38 | 4 | 7.0 | 18.0 | 0.08 | 0.18 | 0.13 | 88 | 1013.8 |
| 20260505091548 | 38 | 279 | 7.0 | 18.0 | 0.08 | 0.18 | 0.13 | 88 | 1013.8 |
| 20260505091036 | 39 | 342 | 5.0 | 15.0 | 0.09 | 0.18 | 0.13 | 88 | 1013.8 |
| 20260505090537 | 39 | 11 | 5.0 | 14.0 | 0.08 | 0.17 | 0.12 | 88 | 1013.9 |
| 20260505090052 | 40 | 3 | 5.0 | 14.0 | 0.07 | 0.16 | 0.11 | 88 | 1013.8 |
| 20260505085537 | 40 | 21 | 5.0 | 12.0 | 0.06 | 0.15 | 0.10 | 88 | 1013.8 |
| 20260505085037 | 41 | 326 | 5.0 | 14.0 | 0.05 | 0.14 | 0.09 | 88 | 1013.8 |
| 20260505084548 | 41 | 6 | 7.0 | 14.0 | 0.04 | 0.13 | 0.08 | 87 | 1013.6 |
| 20260505084038 | 41 | 2 | 6.0 | 14.0 | 0.04 | 0.12 | 0.07 | 88 | 1013.5 |
| 20260505083537 | 41 | 342 | 5.0 | 13.0 | 0.04 | 0.11 | 0.06 | 88 | 1013.3 |
| 20260505083102 | 42 | 352 | 3.0 | 12.0 | 0.05 | 0.11 | 0.06 | 87 | 1013.3 |
| 20260505082537 | 42 | 298 | 4.0 | 10.0 | 0.04 | 0.10 | 0.05 | 87 | 1013.2 |
| 20260505082037 | 42 | 318 | 2.0 | 11.0 | 0.05 | 0.10 | 0.05 | 87 | 1013.3 |
| 20260505081553 | 42 | 342 | 5.0 | 11.0 | 0.05 | 0.10 | 0.05 | 87 | 1013.2 |
| 20260505081037 | 42 | 311 | 4.0 | 11.0 | 0.04 | 0.09 | 0.04 | 87 | 1013.2 |
| 20260505080536 | 43 | 322 | 4.0 | 10.0 | 0.04 | 0.09 | 0.04 | 87 | 1013.1 |
| 20260505080050 | 42 | 29 | 4.0 | 10.0 | 0.04 | 0.09 | 0.04 | 87 | 1013.0 |
| 20260505075536 | 43 | 14 | 5.0 | 10.0 | 0.04 | 0.09 | 0.04 | 87 | 1013.1 |
| 20260505075036 | 42 | 50 | 4.0 | 9.0 | 0.04 | 0.09 | 0.04 | 86 | 1013.2 |
| 20260505074548 | 42 | 359 | 3.0 | 8.0 | 0.04 | 0.09 | 0.04 | 86 | 1013.3 |
| 20260505074037 | 42 | 17 | 3.0 | 10.0 | 0.03 | 0.08 | 0.03 | 86 | 1013.2 |
| 20260505073540 | 43 | 21 | 5.0 | 10.0 | 0.02 | 0.07 | 0.02 | 86 | 1013.2 |
| 20260505073043 | 43 | 2 | 5.0 | 10.0 | 0.01 | 0.06 | 0.01 | 86 | 1013.2 |
| 20260505072537 | 43 | 287 | 3.0 | 9.0 | 0.01 | 0.06 | 0.01 | 85 | 1013.3 |
| 20260505072037 | 43 | 27 | 3.0 | 10.0 | 0.00 | 0.05 | 0.00 | 85 | 1013.3 |
| 20260505071547 | 43 | 25 | 3.0 | 11.0 | 0.00 | 0.05 | 0.00 | 84 | 1013.4 |
| 20260505071037 | 43 | 42 | 4.0 | 11.0 | 0.00 | 0.05 | 0.00 | 83 | 1013.3 |
| 20260505070540 | 43 | 9 | 4.0 | 11.0 | 0.00 | 0.05 | 0.00 | 83 | 1013.2 |
| 20260505070053 | 44 | 0 | 5.0 | 16.0 | 0.00 | 0.05 | 0.00 | 82 | 1013.2 |
| 20260505065537 | 44 | 41 | 6.0 | 20.0 | 0.00 | 0.05 | 0.00 | 81 | 1013.2 |
| 20260505065034 | 44 | 8 | 11.0 | 20.0 | 0.00 | 0.05 | 0.00 | 80 | 1013.1 |
| 20260505064557 | 44 | 9 | 6.0 | 17.0 | 0.00 | 0.05 | 0.00 | 79 | 1013.0 |
| 20260505064034 | 45 | 27 | 10.0 | 17.0 | 0.00 | 0.05 | 0.00 | 78 | 1013.0 |
| 20260505063534 | 45 | 29 | 6.0 | 17.0 | 0.00 | 0.05 | 0.00 | 78 | 1013.0 |
| 20260505063053 | 45 | 28 | 6.0 | 16.0 | 0.00 | 0.05 | 0.00 | 76 | 1013.0 |
| 20260505062536 | 45 | 48 | 10.0 | 22.0 | 0.00 | 0.05 | 0.00 | 76 | 1012.8 |
| 20260505062035 | 45 | 61 | 12.0 | 22.0 | 0.00 | 0.05 | 0.00 | 76 | 1012.7 |
| 20260505061554 | 46 | 47 | 10.0 | 20.0 | 0.00 | 0.05 | 0.00 | 76 | 1012.5 |
| 20260505061037 | 46 | 37 | 13.0 | 20.0 | 0.00 | 0.05 | 0.00 | 75 | 1012.5 |
| 20260505060537 | 46 | 61 | 7.0 | 20.0 | 0.00 | 0.05 | 0.00 | 75 | 1012.5 |
| 20260505060049 | 47 | 10 | 12.0 | 20.0 | 0.00 | 0.05 | 0.00 | 75 | 1012.4 |
| 20260505055537 | 47 | 42 | 9.0 | 19.0 | 0.00 | 0.05 | 0.05 | 75 | 1012.3 |
| 20260505055038 | 48 | 14 | 8.0 | 19.0 | 0.00 | 0.05 | 0.05 | 75 | 1012.3 |
| 20260505054557 | 49 | 13 | 12.0 | 19.0 | 0.00 | 0.05 | 0.05 | 76 | 1012.3 |
| 20260505054038 | 50 | 41 | 7.0 | 15.0 | 0.00 | 0.05 | 0.05 | 83 | 1012.1 |
| 20260505053539 | 50 | 352 | 3.0 | 8.0 | 0.00 | 0.05 | 0.05 | 84 | 1011.9 |
| 20260505053110 | 50 | 28 | 0.0 | 3.0 | 0.00 | 0.05 | 0.05 | 84 | 1011.7 |
| 20260505052538 | 50 | 0 | 0.0 | 2.0 | 0.00 | 0.05 | 0.05 | 84 | 1011.7 |
| 20260505052042 | 50 | 0 | 1.0 | 4.0 | 0.00 | 0.05 | 0.05 | 84 | 1011.6 |
| 20260505051549 | 50 | 64 | 2.0 | 5.0 | 0.00 | 0.05 | 0.05 | 85 | 1011.5 |
| 20260505051038 | 50 | 53 | 2.0 | 5.0 | 0.00 | 0.05 | 0.05 | 85 | 1011.4 |
| 20260505050539 | 50 | 41 | 2.0 | 4.0 | 0.00 | 0.05 | 0.05 | 86 | 1011.4 |
| 20260505041610 | 50 | 0 | 0.0 | 2.0 | 0.00 | 0.05 | 0.05 | 85 | 1011.3 |
| 20260505041039 | 50 | 0 | 0.0 | 4.0 | 0.00 | 0.05 | 0.05 | 85 | 1011.3 |
| 20260505040539 | 50 | 0 | 0.0 | 5.0 | 0.00 | 0.05 | 0.05 | 85 | 1011.4 |
| 20260505040054 | 50 | 156 | 1.0 | 5.0 | 0.00 | 0.05 | 0.05 | 85 | 1011.3 |
| 20260505035539 | 50 | 156 | 1.0 | 4.0 | 0.00 | 0.05 | 0.05 | 85 | 1011.2 |
| 20260505035043 | 50 | 156 | 0.0 | 4.0 | 0.00 | 0.05 | 0.05 | 85 | 1011.2 |
| 20260505034549 | 50 | 0 | 1.0 | 4.0 | 0.00 | 0.05 | 0.05 | 85 | 1011.1 |
| 20260505034043 | 50 | 156 | 1.0 | 4.0 | 0.00 | 0.05 | 0.05 | 84 | 1011.1 |
| 20260505033539 | 50 | 0 | 1.0 | 4.0 | 0.00 | 0.05 | 0.05 | 84 | 1011.0 |
| 20260505033049 | 50 | 0 | 0.0 | 2.0 | 0.00 | 0.05 | 0.05 | 84 | 1011.1 |
| 20260505032541 | 50 | 0 | 0.0 | 2.0 | 0.00 | 0.05 | 0.05 | 83 | 1011.1 |
| 20260505032039 | 50 | 156 | 0.0 | 1.0 | 0.00 | 0.05 | 0.05 | 83 | 1010.9 |
| 20260505031555 | 50 | 0 | 0.0 | 2.0 | 0.00 | 0.05 | 0.05 | 83 | 1010.9 |
| 20260505031041 | 51 | 0 | 0.0 | 2.0 | 0.00 | 0.05 | 0.05 | 83 | 1010.9 |
| 20260505030538 | 51 | 0 | 0.0 | 2.0 | 0.01 | 0.05 | 0.05 | 83 | 1010.8 |
| 20260505030050 | 51 | 156 | 0.0 | 2.0 | 0.01 | 0.05 | 0.05 | 82 | 1010.7 |
| 20260505025539 | 51 | 156 | 0.0 | 1.0 | 0.01 | 0.05 | 0.05 | 82 | 1010.7 |
| 20260505025037 | 51 | 0 | 0.0 | 2.0 | 0.01 | 0.05 | 0.05 | 82 | 1010.4 |
| 20260505024548 | 51 | 0 | 0.0 | 2.0 | 0.01 | 0.05 | 0.05 | 81 | 1010.3 |
| 20260505024038 | 51 | 156 | 0.0 | 2.0 | 0.01 | 0.05 | 0.05 | 81 | 1010.2 |
| 20260505023538 | 51 | 156 | 0.0 | 2.0 | 0.01 | 0.05 | 0.05 | 80 | 1010.3 |
| 20260505023048 | 51 | 0 | 0.0 | 2.0 | 0.01 | 0.05 | 0.05 | 79 | 1010.2 |
| 20260505022534 | 51 | 156 | 0.0 | 2.0 | 0.01 | 0.05 | 0.05 | 79 | 1010.3 |
| 20260505022037 | 51 | 0 | 0.0 | 2.0 | 0.01 | 0.05 | 0.05 | 79 | 1010.2 |
| 20260505021549 | 51 | 156 | 0.0 | 4.0 | 0.01 | 0.05 | 0.05 | 78 | 1010.2 |
| 20260505021033 | 52 | 156 | 0.0 | 4.0 | 0.01 | 0.05 | 0.05 | 78 | 1010.2 |
| 20260505020536 | 52 | 156 | 1.0 | 5.0 | 0.00 | 0.04 | 0.04 | 78 | 1010.3 |
| 20260505020046 | 52 | 175 | 1.0 | 6.0 | 0.00 | 0.04 | 0.04 | 78 | 1010.2 |
| 20260505015534 | 52 | 184 | 2.0 | 6.0 | 0.00 | 0.04 | 0.04 | 78 | 1010.3 |
| 20260505015034 | 53 | 183 | 2.0 | 5.0 | 0.00 | 0.04 | 0.04 | 78 | 1010.4 |
| 20260505014546 | 53 | 226 | 1.0 | 3.0 | 0.00 | 0.04 | 0.04 | 78 | 1010.3 |
| 20260505014036 | 53 | 325 | 0.0 | 2.0 | 0.00 | 0.04 | 0.04 | 76 | 1010.2 |
| 20260505013534 | 53 | 325 | 0.0 | 2.0 | 0.01 | 0.04 | 0.04 | 75 | 1010.2 |
| 20260505013049 | 53 | 352 | 0.0 | 2.0 | 0.01 | 0.04 | 0.04 | 73 | 1010.3 |
| 20260505012537 | 53 | 0 | 0.0 | 2.0 | 0.02 | 0.04 | 0.04 | 74 | 1010.2 |
| 20260505012034 | 53 | 0 | 0.0 | 2.0 | 0.02 | 0.04 | 0.04 | 73 | 1010.2 |
| 20260505011546 | 53 | 0 | 0.0 | 2.0 | 0.02 | 0.04 | 0.04 | 73 | 1010.3 |
| 20260505011033 | 53 | 0 | 1.0 | 2.0 | 0.03 | 0.04 | 0.04 | 73 | 1010.3 |
| 20260505010537 | 53 | 352 | 1.0 | 5.0 | 0.04 | 0.04 | 0.04 | 72 | 1010.3 |
| 20260505010047 | 54 | 2 | 1.0 | 5.0 | 0.04 | 0.04 | 0.04 | 69 | 1010.2 |
| 20260505005537 | 54 | 17 | 2.0 | 5.0 | 0.04 | 0.04 | 0.04 | 69 | 1010.2 |
| 20260505005037 | 54 | 48 | 3.0 | 5.0 | 0.04 | 0.04 | 0.04 | 68 | 1010.2 |
| 20260505004548 | 54 | 21 | 1.0 | 3.0 | 0.04 | 0.04 | 0.04 | 70 | 1010.3 |
| 20260505004036 | 54 | 58 | 0.0 | 3.0 | 0.04 | 0.04 | 0.04 | 69 | 1010.3 |
| 20260505003536 | 55 | 58 | 0.0 | 3.0 | 0.03 | 0.03 | 0.03 | 67 | 1010.3 |
| 20260505003042 | 55 | 320 | 1.0 | 8.0 | 0.03 | 0.03 | 0.03 | 67 | 1010.2 |
| 20260505002535 | 55 | 81 | 0.0 | 9.0 | 0.02 | 0.02 | 0.02 | 65 | 1010.3 |
| 20260505002034 | 56 | 85 | 2.0 | 10.0 | 0.02 | 0.02 | 0.02 | 62 | 1010.2 |
| 20260505001552 | 57 | 133 | 3.0 | 13.0 | 0.02 | 0.02 | 0.02 | 58 | 1010.1 |
| 20260505001034 | 58 | 140 | 5.0 | 13.0 | 0.01 | 0.01 | 0.01 | 53 | 1010.1 |
| 20260505000533 | 59 | 214 | 6.0 | 15.0 | 0.00 | 0.00 | 0.00 | 52 | 1009.7 |
| 20260505000054 | 60 | 200 | 7.0 | 15.0 | 0.00 | 0.00 | 0.00 | 48 | 1009.6 |
| 20260504235537 | 61 | 203 | 7.0 | 15.0 | 0.00 | 0.00 | 0.00 | 46 | 1009.4 |
| 20260504235037 | 61 | 211 | 6.0 | 15.0 | 0.00 | 0.00 | 0.00 | 44 | 1009.3 |
| 20260504234552 | 62 | 210 | 7.0 | 13.0 | 0.00 | 0.00 | 0.00 | 40 | 1009.1 |
| 20260504234036 | 62 | 164 | 5.0 | 10.0 | 0.00 | 0.00 | 0.00 | 38 | 1009.0 |
| 20260504233538 | 62 | 182 | 5.0 | 8.0 | 0.00 | 0.00 | 0.00 | 38 | 1008.9 |
| 20260504233045 | 62 | 187 | 3.0 | 6.0 | 0.00 | 0.00 | 0.00 | 40 | 1008.9 |
| 20260504232539 | 63 | 201 | 2.0 | 4.0 | 0.00 | 0.00 | 0.00 | 39 | 1008.8 |
| 20260504232039 | 63 | 223 | 2.0 | 4.0 | 0.00 | 0.00 | 0.00 | 39 | 1008.7 |
| 20260504231558 | 63 | 313 | 0.0 | 3.0 | 0.00 | 0.00 | 0.00 | 38 | 1008.7 |
| 20260504231039 | 63 | 315 | 0.0 | 3.0 | 0.00 | 0.00 | 0.00 | 39 | 1008.6 |
| 20260504230539 | 63 | 309 | 0.0 | 3.0 | 0.00 | 0.00 | 0.00 | 38 | 1008.5 |
| 20260504230049 | 63 | 325 | 0.0 | 3.0 | 0.00 | 0.00 | 0.00 | 37 | 1008.3 |
| 20260504225539 | 63 | 0 | 1.0 | 3.0 | 0.00 | 0.00 | 0.00 | 37 | 1008.2 |
| 20260504225039 | 64 | 292 | 0.0 | 6.0 | 0.00 | 0.00 | 0.00 | 38 | 1008.1 |
| 20260504224546 | 64 | 308 | 1.0 | 7.0 | 0.00 | 0.00 | 0.00 | 36 | 1008.1 |
| 20260504224039 | 64 | 292 | 1.0 | 7.0 | 0.00 | 0.00 | 0.00 | 38 | 1008.0 |
| 20260504223540 | 64 | 314 | 2.0 | 7.0 | 0.00 | 0.00 | 0.00 | 36 | 1008.1 |
| 20260504223046 | 64 | 281 | 1.0 | 7.0 | 0.00 | 0.00 | 0.00 | 37 | 1008.2 |
| 20260504222540 | 64 | 320 | 2.0 | 8.0 | 0.00 | 0.00 | 0.00 | 38 | 1008.3 |
| 20260504222039 | 64 | 302 | 3.0 | 8.0 | 0.00 | 0.00 | 0.00 | 38 | 1008.2 |
| 20260504221557 | 64 | 19 | 3.0 | 8.0 | 0.00 | 0.00 | 0.00 | 37 | 1008.3 |
| 20260504221038 | 63 | 352 | 1.0 | 6.0 | 0.00 | 0.00 | 0.00 | 39 | 1008.4 |
| 20260504220539 | 63 | 358 | 2.0 | 6.0 | 0.00 | 0.00 | 0.00 | 40 | 1008.4 |
| 20260504220052 | 62 | 336 | 1.0 | 6.0 | 0.00 | 0.00 | 0.00 | 40 | 1008.6 |
| 20260504215540 | 62 | 352 | 2.0 | 8.0 | 0.00 | 0.00 | 0.00 | 40 | 1008.7 |
| 20260504215039 | 62 | 328 | 2.0 | 9.0 | 0.00 | 0.00 | 0.00 | 40 | 1008.7 |
| 20260504214551 | 62 | 264 | 4.0 | 9.0 | 0.00 | 0.00 | 0.00 | 39 | 1009.0 |
| 20260504214040 | 63 | 263 | 3.0 | 15.0 | 0.00 | 0.00 | 0.00 | 40 | 1008.9 |
| 20260504213540 | 63 | 315 | 3.0 | 15.0 | 0.00 | 0.00 | 0.00 | 40 | 1008.8 |
| 20260504213050 | 63 | 254 | 6.0 | 15.0 | 0.00 | 0.00 | 0.00 | 39 | 1008.6 |
| 20260504212539 | 62 | 284 | 5.0 | 12.0 | 0.00 | 0.00 | 0.00 | 38 | 1008.3 |
| 20260504212039 | 62 | 309 | 3.0 | 14.0 | 0.00 | 0.00 | 0.00 | 39 | 1008.4 |
| 20260504211552 | 62 | 260 | 6.0 | 18.0 | 0.00 | 0.00 | 0.00 | 39 | 1008.2 |
| 20260504211038 | 62 | 290 | 8.0 | 18.0 | 0.00 | 0.00 | 0.00 | 40 | 1008.4 |
| 20260504210538 | 62 | 287 | 8.0 | 20.0 | 0.00 | 0.00 | 0.00 | 39 | 1008.7 |
| 20260504210105 | 62 | 246 | 11.0 | 20.0 | 0.00 | 0.00 | 0.00 | 38 | 1008.8 |
| 20260504205539 | 63 | 265 | 5.0 | 12.0 | 0.00 | 0.00 | 0.00 | 38 | 1009.1 |
| 20260504205041 | 62 | 342 | 5.0 | 12.0 | 0.00 | 0.00 | 0.00 | 39 | 1009.1 |
| 20260504204553 | 62 | 360 | 5.0 | 14.0 | 0.00 | 0.00 | 0.00 | 39 | 1009.2 |
| 20260504204038 | 62 | 308 | 4.0 | 14.0 | 0.00 | 0.00 | 0.00 | 39 | 1009.1 |
| 20260504203538 | 62 | 347 | 7.0 | 14.0 | 0.00 | 0.00 | 0.00 | 38 | 1009.1 |
| 20260504203053 | 62 | 42 | 6.0 | 12.0 | 0.00 | 0.00 | 0.00 | 38 | 1009.4 |
| 20260504202538 | 62 | 22 | 4.0 | 18.0 | 0.00 | 0.00 | 0.00 | 37 | 1009.3 |
| 20260504202038 | 62 | 17 | 6.0 | 18.0 | 0.00 | 0.00 | 0.00 | 38 | 1009.5 |
| 20260504201550 | 62 | 69 | 11.0 | 18.0 | 0.00 | 0.00 | 0.00 | 37 | 1009.6 |
| 20260504201038 | 62 | 347 | 5.0 | 15.0 | 0.00 | 0.00 | 0.00 | 44 | 1009.7 |
| 20260504200539 | 62 | 347 | 5.0 | 27.0 | 0.00 | 0.00 | 0.00 | 40 | 1009.7 |
| 20260504200059 | 62 | 47 | 9.0 | 27.0 | 0.00 | 0.00 | 0.00 | 40 | 1009.6 |
| 20260504195538 | 62 | 32 | 10.0 | 27.0 | 0.00 | 0.00 | 0.00 | 38 | 1009.6 |
| 20260504195038 | 63 | 358 | 8.0 | 16.0 | 0.00 | 0.00 | 0.00 | 39 | 1009.3 |
| 20260504194607 | 63 | 31 | 4.0 | 12.0 | 0.00 | 0.00 | 0.00 | 40 | 1009.4 |
| 20260504194038 | 63 | 15 | 3.0 | 16.0 | 0.00 | 0.00 | 0.00 | 38 | 1009.2 |
| 20260504193538 | 63 | 9 | 8.0 | 16.0 | 0.00 | 0.00 | 0.00 | 33 | 1008.9 |
| 20260504193058 | 63 | 33 | 8.0 | 18.0 | 0.00 | 0.00 | 0.00 | 35 | 1008.5 |
| 20260504192538 | 63 | 77 | 9.0 | 18.0 | 0.00 | 0.00 | 0.00 | 35 | 1008.2 |
| 20260504192038 | 63 | 2 | 7.0 | 22.0 | 0.00 | 0.00 | 0.00 | 36 | 1008.5 |
| 20260504191552 | 64 | 339 | 10.0 | 22.0 | 0.00 | 0.00 | 0.00 | 35 | 1008.5 |
| 20260504191038 | 65 | 327 | 7.0 | 17.0 | 0.00 | 0.00 | 0.00 | 30 | 1008.4 |
| 20260504190538 | 65 | 15 | 4.0 | 17.0 | 0.00 | 0.00 | 0.00 | 28 | 1007.9 |
| 20260504190117 | 66 | 352 | 6.0 | 19.0 | 0.00 | 0.00 | 0.00 | 29 | 1007.9 |
| 20260504185537 | 67 | 10 | 10.0 | 19.0 | 0.00 | 0.00 | 0.00 | 26 | 1007.9 |
| 20260504185038 | 68 | 36 | 11.0 | 17.0 | 0.00 | 0.00 | 0.00 | 25 | 1007.7 |
| 20260504184558 | 69 | 35 | 5.0 | 9.0 | 0.00 | 0.00 | 0.00 | 26 | 1007.7 |
| 20260504184038 | 69 | 17 | 4.0 | 10.0 | 0.00 | 0.00 | 0.00 | 23 | 1007.6 |
| 20260504183538 | 69 | 40 | 4.0 | 14.0 | 0.00 | 0.00 | 0.00 | 23 | 1007.5 |
| 20260504183050 | 69 | 19 | 5.0 | 14.0 | 0.00 | 0.00 | 0.00 | 23 | 1007.5 |
| 20260504182538 | 70 | 36 | 6.0 | 15.0 | 0.00 | 0.00 | 0.00 | 23 | 1007.5 |
| 20260504182038 | 70 | 312 | 6.0 | 15.0 | 0.00 | 0.00 | 0.00 | 22 | 1007.6 |
| 20260504181558 | 70 | 294 | 7.0 | 18.0 | 0.00 | 0.00 | 0.00 | 23 | 1007.5 |
| 20260504181038 | 71 | 19 | 7.0 | 18.0 | 0.00 | 0.00 | 0.00 | 23 | 1007.7 |
| 20260504180539 | 71 | 352 | 5.0 | 13.0 | 0.00 | 0.00 | 0.00 | 23 | 1007.5 |
| 20260504180143 | 71 | 18 | 4.0 | 12.0 | 0.00 | 0.00 | 0.00 | 21 | 1007.7 |
| 20260504175540 | 71 | 35 | 5.0 | 15.0 | 0.00 | 0.00 | 0.00 | 21 | 1007.5 |
| 20260504175038 | 72 | 4 | 5.0 | 17.0 | 0.00 | 0.00 | 0.00 | 19 | 1007.7 |
| 20260504174549 | 73 | 296 | 2.0 | 17.0 | 0.00 | 0.00 | 0.00 | 24 | 1007.8 |
| 20260504174040 | 72 | 21 | 7.0 | 18.0 | 0.00 | 0.00 | 0.00 | 21 | 1007.9 |
| 20260504173538 | 72 | 317 | 7.0 | 18.0 | 0.00 | 0.00 | 0.00 | 21 | 1007.9 |
| 20260504173108 | 72 | 333 | 7.0 | 17.0 | 0.00 | 0.00 | 0.00 | 21 | 1007.9 |
| 20260504172538 | 72 | 342 | 5.0 | 13.0 | 0.00 | 0.00 | 0.00 | 21 | 1007.9 |
| 20260504172038 | 73 | 313 | 6.0 | 12.0 | 0.00 | 0.00 | 0.00 | 21 | 1007.9 |
| 20260504171556 | 72 | 274 | 3.0 | 8.0 | 0.00 | 0.00 | 0.00 | 24 | 1008.0 |
| 20260504171041 | 72 | 246 | 1.0 | 11.0 | 0.00 | 0.00 | 0.00 | 26 | 1007.9 |
| 20260504170539 | 72 | 352 | 3.0 | 11.0 | 0.00 | 0.00 | 0.00 | 21 | 1008.0 |